TimeEDT,TemperatureF,Dew PointF,Humidity,Sea Level PressureIn,VisibilityMPH,Wind Direction,Wind SpeedMPH,Gust SpeedMPH,PrecipitationIn,Events,Conditions,WindDirDegrees,DateUTC
12:55 AM,45.9,34.7,65,30.29,10.0,Calm,Calm,-,N/A,,Overcast,0,2012-10-14 04:55:00
1:26 AM,46.4,35.6,66,30.28,10.0,SSW,4.6,-,N/A,,Light Drizzle,210,2012-10-14 05:26:00
1:43 AM,46.4,35.6,66,30.27,10.0,South,3.5,-,N/A,,Mostly Cloudy,190,2012-10-14 05:43:00
1:44 AM,46.4,35.6,66,30.27,10.0,Calm,Calm,-,N/A,,Light Drizzle,0,2012-10-14 05:44:00
1:46 AM,46.4,35.6,66,30.26,10.0,Variable,3.5,-,N/A,,Mostly Cloudy,0,2012-10-14 05:46:00
1:55 AM,45.7,36.3,70,30.25,10.0,South,3.5,-,0.00,,Overcast,190,2012-10-14 05:55:00
2:06 AM,46.4,35.6,66,30.22,10.0,Variable,3.5,-,N/A,,Light Drizzle,0,2012-10-14 06:06:00
2:35 AM,46.4,39.2,76,30.22,10.0,SW,5.8,-,N/A,,Overcast,220,2012-10-14 06:35:00
2:46 AM,46.4,39.2,76,30.22,10.0,Variable,3.5,-,N/A,,Light Drizzle,0,2012-10-14 06:46:00
2:55 AM,45.9,39.9,80,30.22,10.0,Variable,5.8,-,0.00,Rain,Light Rain,0,2012-10-14 06:55:00
3:13 AM,46.4,41.0,81,30.21,10.0,SSW,3.5,-,N/A,,Overcast,200,2012-10-14 07:13:00
3:55 AM,46.0,41.5,84,30.18,10.0,Variable,3.5,-,0.00,,Overcast,0,2012-10-14 07:55:00
4:50 AM,46.4,42.8,87,30.18,10.0,Calm,Calm,-,N/A,,Light Drizzle,0,2012-10-14 08:50:00
4:55 AM,47.1,42.1,83,30.18,10.0,Calm,Calm,-,0.00,,Light Drizzle,0,2012-10-14 08:55:00
5:55 AM,46.4,45.5,97,30.18,9.0,Calm,Calm,-,0.02,Rain,Light Rain,0,2012-10-14 09:55:00
6:39 AM,48.2,46.4,93,30.15,10.0,SSW,5.8,-,N/A,Rain,Light Rain,210,2012-10-14 10:39:00
6:55 AM,48.4,47.3,96,30.14,10.0,South,10.4,-,0.07,Rain,Light Rain,190,2012-10-14 10:55:00
7:55 AM,49.8,47.7,92,30.14,10.0,South,9.2,-,0.02,Rain,Light Rain,190,2012-10-14 11:55:00
8:55 AM,50.4,48.7,94,30.15,6.0,SSW,9.2,-,0.02,Rain,Light Rain,200,2012-10-14 12:55:00
9:23 AM,51.8,50.0,94,30.14,10.0,South,6.9,-,N/A,Rain,Light Rain,170,2012-10-14 13:23:00
9:26 AM,51.8,50.0,94,30.14,10.0,South,8.1,-,N/A,Rain,Light Rain,170,2012-10-14 13:26:00
9:28 AM,51.8,50.0,94,30.14,10.0,South,8.1,-,N/A,Rain,Light Rain,180,2012-10-14 13:28:00
9:37 AM,51.8,50.0,94,30.14,8.0,South,9.2,-,N/A,Rain,Light Rain,180,2012-10-14 13:37:00
9:55 AM,52.2,50.9,95,30.14,10.0,South,10.4,-,0.04,Rain,Light Rain,190,2012-10-14 13:55:00
10:14 AM,51.8,50.0,94,30.14,10.0,South,11.5,-,N/A,,Mostly Cloudy,180,2012-10-14 14:14:00
10:19 AM,51.8,50.0,94,30.14,8.0,South,9.2,-,N/A,,Overcast,190,2012-10-14 14:19:00
10:26 AM,51.8,50.0,94,30.14,10.0,South,11.5,-,N/A,,Overcast,190,2012-10-14 14:26:00
10:28 AM,51.8,50.0,94,30.14,10.0,South,11.5,-,N/A,,Overcast,190,2012-10-14 14:28:00
10:41 AM,53.6,50.0,88,30.14,10.0,South,10.4,-,N/A,Rain,Light Rain,190,2012-10-14 14:41:00
10:55 AM,52.7,50.9,94,30.13,10.0,South,11.5,-,0.01,,Light Drizzle,180,2012-10-14 14:55:00
11:17 AM,53.6,51.8,94,30.12,9.0,South,9.2,-,N/A,,Overcast,180,2012-10-14 15:17:00
11:55 AM,55.4,51.8,88,30.11,9.0,South,11.5,-,N/A,,Overcast,180,2012-10-14 15:55:00
12:55 PM,59.0,51.8,77,30.08,10.0,South,11.5,-,N/A,,Overcast,190,2012-10-14 16:55:00
1:55 PM,59.0,50.0,72,30.06,10.0,SSW,10.4,-,N/A,,Overcast,200,2012-10-14 17:55:00
2:15 PM,60.8,50.0,68,30.06,10.0,South,8.1,-,N/A,,Overcast,190,2012-10-14 18:15:00
2:55 PM,65.1,52.5,64,30.03,10.0,SSW,10.4,17.3,N/A,,Overcast,200,2012-10-14 18:55:00
3:55 PM,68.0,52.7,58,30.01,10.0,SSW,15.0,19.6,N/A,,Clear,200,2012-10-14 19:55:00
4:55 PM,66.6,51.8,59,30.00,10.0,SSW,15.0,20.7,N/A,,Clear,200,2012-10-14 20:55:00
5:55 PM,63.9,51.8,65,29.99,10.0,South,11.5,-,N/A,,Clear,180,2012-10-14 21:55:00
6:55 PM,59.5,51.6,75,30.00,10.0,SSE,5.8,-,N/A,,Clear,160,2012-10-14 22:55:00
7:55 PM,59.2,52.7,79,29.99,10.0,South,9.2,-,N/A,,Clear,170,2012-10-14 23:55:00
8:55 PM,59.9,53.8,80,29.98,10.0,South,8.1,-,N/A,,Clear,180,2012-10-15 00:55:00
9:55 PM,58.5,54.1,86,29.97,10.0,South,9.2,-,N/A,,Clear,170,2012-10-15 01:55:00
10:55 PM,59.2,55.0,86,29.96,10.0,South,11.5,-,N/A,,Clear,190,2012-10-15 02:55:00
11:55 PM,59.0,55.8,89,29.94,10.0,South,9.2,-,N/A,,Clear,190,2012-10-15 03:55:00